Tracking 19832 objects as of 25-Aug-2019
HD Live streaming from Space Station
objects crossing your sky now

COSMOS 2251 DEB

Track COSMOS 2251 DEB now!
10-day predictions


NORAD ID: 35292
Int'l Code: 1993-036AJW
Perigee: 564.7 km
Apogee: 602.4 km
Inclination: 74.0 °
Period: 96.2 minutes
Semi major axis: 6954 km
RCS: 0.0092 m2 (small)
Launch date: June 16, 1993
Source: Commonwealth of Independent States (former USSR) (CIS)
Launch site: PLESETSK MISSILE AND SPACE COMPLEX (PKMTR)

Note: This is SATELLITE DEBRIS
aabbcc
Your satellite tracking list
Your tracking list is empty




NASA's NSSDC Master Catalog

Two Line Element Set (TLE):
1 35292U 93036AJW 19236.00162950 +.00002390 +00000-0 +21010-3 0  9997
2 35292 073.9990 106.6873 0027113 104.0276 256.3926 14.96911765329797
Source of the keplerian elements: AFSPC